GW3674 Weather Reports


time (UTC)temp
C
wind
direction
speed
KPH
gust
KPH
rain 1hr
cm
rain 24hr
cm
rain mn
cm
humidity
%
barometer
mb
20260505184528 25 221 9.7 20.9 0.00 0.00 0.00 47 1017.7
20260505183013 25 105 6.4 20.9 0.00 0.00 0.00 48 1017.8
20260505181517 25 188 4.8 22.5 0.00 0.00 0.00 48 1017.4
20260505180039 25 205 9.7 17.7 0.00 0.00 0.00 49 1017.7
20260505174527 25 148 3.2 16.1 0.00 0.00 0.00 49 1017.5
20260505173026 25 202 3.2 16.1 0.00 0.00 0.00 48 1017.7
20260505171516 25 74 4.8 14.5 0.00 0.00 0.00 49 1017.7
20260505170022 24 192 3.2 16.1 0.00 0.00 0.00 52 1018.0
20260505164526 24 218 6.4 17.7 0.00 0.00 0.00 50 1018.2
20260505163028 23 230 3.2 17.7 0.00 0.00 0.00 53 1018.4
20260505161528 23 198 8.0 16.1 0.00 0.00 0.00 56 1018.4
20260505153012 23 212 6.4 12.9 0.00 0.00 0.00 58 1018.8
20260505151511 22 159 6.4 16.1 0.00 0.00 0.00 58 1018.8
20260505124518 17 197 3.2 4.8 0.00 0.00 0.00 81 1018.8
20260505123029 16 189 0.0 3.2 0.00 0.00 0.00 82 1018.6
20260505121526 14 189 0.0 1.6 0.00 0.00 0.00 77 1018.4
20260505120027 13 189 0.0 0.0 0.00 0.00 0.00 78 1018.4
20260505114514 12 189 0.0 0.0 0.00 0.00 0.00 78 1018.4
20260505113022 12 189 0.0 0.0 0.00 0.00 0.00 79 1018.2
20260505111521 12 189 0.0 0.0 0.00 0.00 0.00 79 1018.2
20260505101531 11 189 0.0 0.0 0.00 0.00 0.00 80 1017.3
20260505100051 11 189 0.0 0.0 0.00 0.00 0.00 80 1017.2
20260505094530 12 189 0.0 0.0 0.00 0.00 0.00 80 1017.2
20260505093027 12 189 0.0 1.6 0.00 0.00 0.00 80 1017.2
20260505091519 12 189 0.0 1.6 0.00 0.00 0.00 81 1017.0
20260505090005 12 189 0.0 1.6 0.00 0.00 0.00 81 1017.0
20260505084506 12 189 0.0 0.0 0.00 0.00 0.00 81 1016.9
20260505083006 12 189 0.0 0.0 0.00 0.00 0.00 81 1016.9
20260505081514 12 189 0.0 0.0 0.00 0.00 0.00 81 1016.7
20260505080020 12 189 0.0 3.2 0.00 0.00 0.00 82 1016.6
20260505074503 12 189 0.0 1.6 0.00 0.00 0.00 82 1016.6
20260505073027 12 189 0.0 1.6 0.00 0.00 0.00 82 1016.6
20260505071510 12 189 0.0 0.0 0.00 0.00 0.00 83 1016.4
20260505070015 13 189 0.0 1.6 0.00 0.00 0.00 83 1016.4
20260505064521 13 189 0.0 1.6 0.00 0.00 0.00 83 1016.8
20260505063024 13 189 0.0 0.0 0.00 0.00 0.00 83 1016.8
20260505061519 13 189 0.0 3.2 0.00 0.00 0.00 83 1017.0
20260505060015 13 189 0.0 1.6 0.00 0.00 0.00 83 1017.3
20260505054515 13 189 0.0 1.6 0.00 0.00 0.00 83 1017.4
20260505053034 13 189 0.0 3.2 0.00 0.00 0.00 82 1017.5
20260505051537 14 189 0.0 0.0 0.00 0.00 0.00 81 1017.8
20260505041524 15 189 0.0 1.6 0.00 0.00 0.00 76 1017.7
20260505040024 15 189 0.0 3.2 0.00 0.00 0.00 75 1017.7
20260505034512 16 185 0.0 3.2 0.00 0.00 0.00 74 1018.0
20260505033019 16 181 0.0 3.2 0.00 0.00 0.00 72 1017.8
20260505031526 16 181 0.0 3.2 0.00 0.00 0.00 71 1018.0
20260505030025 16 181 0.0 3.2 0.00 0.00 0.00 69 1017.8
20260505024526 16 181 1.6 4.8 0.00 0.00 0.00 68 1017.7
20260505023019 16 180 0.0 6.4 0.00 0.00 0.00 67 1017.8
20260505021518 17 206 0.0 3.2 0.00 0.00 0.00 65 1017.6
20260505020028 17 207 0.0 3.2 0.00 0.00 0.00 63 1017.7
20260505014526 17 207 0.0 3.2 0.00 0.00 0.00 62 1017.7
20260505013030 18 180 0.0 6.4 0.00 0.00 0.00 60 1017.4
20260505011525 18 191 1.6 6.4 0.00 0.00 0.00 59 1017.6
20260505010030 18 189 1.6 6.4 0.00 0.00 0.00 58 1017.2
20260505004524 19 197 1.6 6.4 0.00 0.00 0.00 56 1017.4
20260505003025 19 178 1.6 6.4 0.00 0.00 0.00 54 1017.2
20260505001530 20 219 4.8 9.7 0.00 0.00 0.00 53 1017.2
20260505000035 20 190 4.8 9.7 0.00 0.00 0.00 52 1017.3
20260504234522 20 178 3.2 11.3 0.00 0.00 0.00 51 1016.9
20260504233025 21 204 3.2 14.5 0.00 0.00 0.00 50 1017.0
20260504231510 21 198 8.0 17.7 0.00 0.00 0.00 49 1016.7
20260504230025 21 196 6.4 20.9 0.00 0.00 0.00 51 1016.8
20260504224503 22 234 9.7 19.3 0.00 0.00 0.00 49 1016.6
20260504223006 22 225 8.0 22.5 0.00 0.00 0.00 48 1017.0
20260504221520 22 194 6.4 25.7 0.00 0.00 0.00 48 1016.7
20260504220012 22 215 9.7 24.1 0.00 0.00 0.00 47 1016.8
20260504214522 22 198 11.3 22.5 0.00 0.00 0.00 47 1016.5
20260504213004 22 209 4.8 22.5 0.00 0.00 0.00 46 1016.7
20260504211508 23 184 9.7 22.5 0.00 0.00 0.00 45 1016.8
20260504210010 23 207 11.3 24.1 0.00 0.00 0.00 44 1016.5
20260504204517 23 163 8.0 24.1 0.00 0.00 0.00 45 1016.4
20260504203020 23 231 8.0 29.0 0.00 0.00 0.00 43 1016.4
20260504201506 24 198 12.9 24.1 0.00 0.00 0.00 42 1016.4
20260504200010 25 206 4.8 14.5 0.00 0.00 0.00 39 1016.4
20260504194514 25 195 6.4 16.1 0.00 0.00 0.00 34 1016.7
20260504193015 25 123 3.2 14.5 0.00 0.00 0.00 36 1016.8
20260504191531 24 192 3.2 12.9 0.00 0.00 0.00 35 1017.1
20260504190007 24 194 6.4 16.1 0.00 0.00 0.00 37 1017.2